Location: M?digepalle
(16.1753°N, 80.3496°E)
Time: 08:13:24
(UTC+00:00)

FengYun 1-2 T - Pass Details

Date: 29 October 2020
Orbit: 846 x 882 km, 98.7° (Epoch: 28 November)

Event Time Altitude Azimuth Distance (km) Brightness Sun altitude
Rises 12:34:46 0° 162° (SSE) 3,467 7.3 -6.7°
Reaches altitude 10° 12:37:10 10° 160° (SSE) 2,531 6.6 -7.3°
Maximum altitude 12:42:47 71° 76° (ENE) 927 4.2 -8.6°
Drops below altitude 10° 12:48:23 10° 353° (N) 2,530 6.6 -9.9°
Sets 12:50:47 0° 352° (N) 3,467 7.4 -10.5°
